AUA3X EDDF-LOWW

Flight info

Callsign AUA3X
Flight time N/A
Altitude 35000
Route SULUS7S/18 SULUS Z650 NOGRA DCT VEMUT DCT ETVIS DCT BUDEX BUDEX2W
Aircraft A320/M-SDE3FGHIRWY/LB1

Departure

Time N/A
Airport Frankfurt Main Airport (EDDF)

Arrival

Time 2026-04-24 19:17
Airport Vienna International Airport (LOWW)
Time Latitude Longitude Altitude Speed Heading
2026-04-24 18:54 48.56153 15.32197 19846 ft 318 kts 116°
2026-04-24 18:55 48.54087 15.38049 18824 ft 314 kts 115°
2026-04-24 18:55 48.53083 15.40955 18311 ft 311 kts 111°
2026-04-24 18:55 48.52323 15.43984 17761 ft 306 kts 102°
2026-04-24 18:56 48.51870 15.47089 17247 ft 301 kts 94°
2026-04-24 18:56 48.51679 15.50215 17056 ft 300 kts 90°
2026-04-24 18:56 48.51509 15.53343 17063 ft 300 kts 91°
2026-04-24 18:56 48.51328 15.56483 17067 ft 300 kts 91°
2026-04-24 18:57 48.51143 15.59622 17059 ft 301 kts 91°
2026-04-24 18:57 48.50960 15.62755 17059 ft 301 kts 91°
2026-04-24 18:57 48.50778 15.65901 17059 ft 300 kts 91°
2026-04-24 18:57 48.50598 15.69036 17059 ft 300 kts 91°
2026-04-24 18:58 48.50416 15.72176 17059 ft 300 kts 91°
2026-04-24 18:58 48.50233 15.75313 17065 ft 301 kts 91°
2026-04-24 18:58 48.50051 15.78460 17058 ft 301 kts 91°
2026-04-24 18:58 48.49867 15.81599 17057 ft 301 kts 91°
2026-04-24 18:59 48.49680 15.84741 17057 ft 301 kts 91°
2026-04-24 18:59 48.49493 15.87902 16685 ft 307 kts 91°
2026-04-24 18:59 48.49302 15.91072 16530 ft 300 kts 91°
2026-04-24 18:59 48.49110 15.94188 16284 ft 297 kts 91°
2026-04-24 19:00 48.48921 15.97245 16013 ft 296 kts 91°
2026-04-24 19:00 48.48732 16.00328 15733 ft 295 kts 91°
2026-04-24 19:00 48.48546 16.03401 15465 ft 294 kts 91°
2026-04-24 19:00 48.48319 16.06453 15190 ft 294 kts 96°
2026-04-24 19:01 48.47797 16.09484 14913 ft 296 kts 107°
2026-04-24 19:01 48.46987 16.12286 14644 ft 296 kts 116°
2026-04-24 19:01 48.45882 16.14932 14207 ft 300 kts 123°
2026-04-24 19:01 48.44692 16.17515 13816 ft 300 kts 123°
2026-04-24 19:02 48.43892 16.19261 13506 ft 300 kts 122°
2026-04-24 19:02 48.42328 16.22682 12924 ft 299 kts 122°
2026-04-24 19:02 48.41150 16.25257 12488 ft 299 kts 123°
2026-04-24 19:02 48.39973 16.27827 12049 ft 297 kts 123°
2026-04-24 19:03 48.38804 16.30384 11629 ft 296 kts 123°
2026-04-24 19:03 48.37638 16.32932 11214 ft 294 kts 122°
2026-04-24 19:03 48.36488 16.35440 10797 ft 288 kts 123°
2026-04-24 19:03 48.35361 16.37894 10389 ft 283 kts 123°
2026-04-24 19:04 48.34244 16.40319 10012 ft 283 kts 122°
2026-04-24 19:04 48.33122 16.42758 9626 ft 283 kts 123°
2026-04-24 19:04 48.32000 16.45199 9233 ft 284 kts 123°
2026-04-24 19:04 48.30879 16.47636 8843 ft 283 kts 123°
2026-04-24 19:05 48.29655 16.49952 8457 ft 283 kts 133°
2026-04-24 19:05 48.28230 16.51943 8074 ft 277 kts 142°
2026-04-24 19:05 48.26702 16.53663 7702 ft 273 kts 144°
2026-04-24 19:05 48.25188 16.55362 7331 ft 271 kts 145°
2026-04-24 19:06 48.23685 16.57057 6985 ft 269 kts 145°
2026-04-24 19:06 48.22195 16.58742 6666 ft 268 kts 145°
2026-04-24 19:06 48.20710 16.60419 6345 ft 267 kts 145°
2026-04-24 19:06 48.19281 16.62178 6071 ft 264 kts 136°
2026-04-24 19:07 48.18092 16.64282 5958 ft 265 kts 124°
2026-04-24 19:07 48.17184 16.66669 5596 ft 263 kts 114°
2026-04-24 19:07 48.16656 16.68298 5356 ft 262 kts 114°
2026-04-24 19:07 48.15585 16.71553 4909 ft 259 kts 114°
2026-04-24 19:08 48.14790 16.73954 4571 ft 256 kts 114°
2026-04-24 19:08 48.13997 16.76333 4241 ft 254 kts 114°
2026-04-24 19:08 48.13213 16.78686 4031 ft 251 kts 114°
2026-04-24 19:08 48.12437 16.81027 4024 ft 251 kts 114°
2026-04-24 19:09 48.11659 16.83367 4026 ft 251 kts 114°
2026-04-24 19:09 48.10881 16.85707 4022 ft 251 kts 114°
2026-04-24 19:09 48.10103 16.88048 4009 ft 251 kts 114°
2026-04-24 19:09 48.09204 16.90289 4009 ft 253 kts 133°
2026-04-24 19:10 48.07738 16.91701 4008 ft 252 kts 166°
2026-04-24 19:10 48.06029 16.91827 4015 ft 242 kts 197°
2026-04-24 19:10 48.04479 16.91108 3998 ft 227 kts 204°
2026-04-24 19:10 48.03010 16.90281 4009 ft 225 kts 205°
2026-04-24 19:11 48.01552 16.89446 4008 ft 224 kts 206°
2026-04-24 19:11 48.00155 16.88464 3996 ft 218 kts 224°
2026-04-24 19:11 47.99319 16.86693 4030 ft 205 kts 260°
2026-04-24 19:11 47.99349 16.84684 4029 ft 195 kts 295°
2026-04-24 19:12 48.00188 16.83167 4034 ft 192 kts 327°
2026-04-24 19:12 48.01379 16.82229 4019 ft 186 kts 334°
2026-04-24 19:12 48.02515 16.81443 4034 ft 176 kts 329°
2026-04-24 19:12 48.03424 16.80254 3879 ft 174 kts 308°
2026-04-24 19:13 48.03812 16.79205 3738 ft 175 kts 299°
2026-04-24 19:13 48.04522 16.77045 3442 ft 175 kts 299°
2026-04-24 19:13 48.05056 16.75421 3213 ft 172 kts 299°
2026-04-24 19:13 48.05565 16.73867 2992 ft 161 kts 299°
2026-04-24 19:14 48.06054 16.72378 2778 ft 155 kts 299°
2026-04-24 19:14 48.06516 16.70971 2583 ft 148 kts 299°
2026-04-24 19:14 48.06947 16.69654 2408 ft 136 kts 299°
2026-04-24 19:14 48.07359 16.68398 2224 ft 133 kts 300°
2026-04-24 19:15 48.07762 16.67172 2050 ft 130 kts 299°
2026-04-24 19:15 48.08160 16.65956 1872 ft 130 kts 299°
2026-04-24 19:15 48.08558 16.64741 1700 ft 130 kts 300°
2026-04-24 19:15 48.08956 16.63527 1522 ft 130 kts 298°
2026-04-24 19:16 48.09762 16.61066 1167 ft 131 kts 298°
2026-04-24 19:16 48.10159 16.59847 984 ft 130 kts 297°
2026-04-24 19:16 48.10559 16.58620 831 ft 133 kts 297°
2026-04-24 19:17 48.10925 16.57502 652 ft 134 kts 298°
2026-04-24 19:17 48.11297 16.56371 614 ft 101 kts 296°
2026-04-24 19:17 48.11533 16.55645 620 ft 58 kts 296°
2026-04-24 19:17 48.11729 16.55239 610 ft 38 kts 318°
2026-04-24 19:18 48.11853 16.55142 618 ft 9 kts
2026-04-24 19:18 48.11864 16.55145 613 ft 0 kts 14°
2026-04-24 19:19 48.11866 16.55146 614 ft 2 kts 17°
2026-04-24 19:19 48.11879 16.55209 616 ft 12 kts 101°
2026-04-24 19:19 48.11836 16.55349 618 ft 15 kts 117°
2026-04-24 19:20 48.11806 16.55439 610 ft 14 kts 116°
2026-04-24 19:20 48.11752 16.55603 617 ft 12 kts 116°
2026-04-24 19:20 48.11717 16.55713 614 ft 11 kts 115°
2026-04-24 19:20 48.11683 16.55820 613 ft 13 kts 117°
2026-04-24 19:21 48.11635 16.55960 615 ft 15 kts 116°
2026-04-24 19:21 48.11593 16.56096 615 ft 14 kts 115°
2026-04-24 19:21 48.11626 16.56208 610 ft 14 kts 42°
2026-04-24 19:21 48.11715 16.56288 611 ft 16 kts 26°
2026-04-24 19:22 48.11756 16.56363 613 ft 15 kts 90°
2026-04-24 19:22 48.11699 16.56531 615 ft 13 kts 115°
2026-04-24 19:22 48.11726 16.56601 610 ft 8 kts 29°
2026-04-24 19:22 48.11756 16.56622 616 ft 0 kts 17°
2026-04-24 19:24 48.11765 16.56628 624 ft 0 kts 24°